This demonstration page uses our WeatherBlox Daily Observations layout. Learn more.

Left ArrowRight Arrow

44.8408, -93.29828

Hourly Observations for March 16, 2015

Temp ( °F °C ) Dew Point ( °F °C ) Humidity (%) Winds ( mph kmh ) Pressure ( in mb ) Visibility ( mi km ) Precip ( " mm )
12:53 am 00:53 Cloudy 58 14.4 44 6.7 60 60 S 5 7 29.90 1013 10 16 0.00 0.00
1:53 am 01:53 Cloudy 57 13.9 43 6.1 60 60 SSW 6 9 29.88 1012 10 16 0.00 0.00
2:53 am 02:53 Cloudy 53 11.7 43 6.1 69 69 Calm 29.87 1011 10 16 0.00 0.00
3:53 am 03:53 Cloudy 50 10 42 5.6 74 74 Calm 29.87 1011 10 16 0.00 0.00
4:53 am 04:53 Mostly Cloudy 48 8.9 41 5 77 77 ENE 6 9 29.85 1011 10 16 0.00 0.00
5:53 am 05:53 Mostly Cloudy 51 10.6 42 5.6 71 71 ENE 5 7 29.80 1009 10 16 0.00 0.00
6:53 am 06:53 Mostly Cloudy 49 9.4 41 5 74 74 E 5 7 29.83 1010 10 16 0.00 0.00
7:38 am 07:38 Mostly Cloudy 50 10 41 5 71 71 E 12 19 29.80 1009 10 16 0.00 0.00
7:53 am 07:53 Mostly Cloudy 51 10.6 42 5.6 71 71 ESE 9 15 29.78 1008 10 16 0.00 0.00
8:53 am 08:53 Mostly Cloudy 52 11.1 42 5.6 69 69 E 8 13 29.77 1008 10 16 0.00 0.00
9:53 am 09:53 Mostly Cloudy 56 13.3 38 3.3 51 51 ESE 10 17 29.72 1007 10 16 0.00 0.00
10:53 am 10:53 Cloudy 57 13.9 36 2.2 45 45 Calm 29.76 1008 10 16 0.00 0.00
11:53 am 11:53 Cloudy 58 14.4 36 2.2 44 44 N 9 15 29.76 1008 10 16 0.00 0.00
12:53 pm 12:53 Cloudy 62 16.7 36 2.2 38 38 N 20 31 29.81 1010 10 16 0.00 0.00
1:53 pm 13:53 Cloudy 60 15.6 31 -0.6 33 33 N 21 33 29.84 1010 10 16 0.00 0.00
2:53 pm 14:53 Cloudy 58 14.4 34 1.1 41 41 NE 15 24 29.83 1010 10 16 0.00 0.00
3:25 pm 15:25 Cloudy 59 15 35 1.7 41 41 N 15 24 29.88 1012 10 16 0.00 0.00
3:53 pm 15:53 Cloudy 56 13.3 39 3.9 53 53 NNW 21 33 29.91 1013 10 16 0.00 0.00
4:36 pm 16:36 Cloudy 52 11 39 4 62 62 N 20 31 29.97 1015 10 16 0.00 0.00
4:53 pm 16:53 Cloudy 49 9.4 39 3.9 69 69 N 21 33 30.00 1016 10 16 0.00 0.00
5:50 pm 17:50 Cloudy 46 8 37 3 71 71 NNW 16 26 30.03 1017 10 16 0.00 0.00
5:53 pm 17:53 Mostly Cloudy 47 8.3 38 3.3 71 71 N 14 22 30.05 1018 10 16 0.00 0.00
6:53 pm 18:53 Cloudy 45 7.2 37 2.8 74 74 NNW 17 28 30.09 1019 10 16 0.00 0.00
7:01 pm 19:01 Cloudy 44 6.7 37 2.8 76 76 NNW 14 22 30.09 1019 10 16 0.00 0.00
7:53 pm 19:53 Cloudy 42 5.6 33 0.6 71 71 NNW 17 28 30.13 1020 10 16 0.00 0.00
8:53 pm 20:53 Cloudy 41 5 28 -2.2 60 60 NNW 18 30 30.18 1022 10 16 0.00 0.00
9:53 pm 21:53 Cloudy 40 4.4 22 -5.6 49 49 N 23 37 30.22 1023 10 16 0.00 0.00
10:53 pm 22:53 Cloudy 38 3.3 20 -6.7 48 48 N 18 30 30.27 1025 10 16 0.00 0.00
11:53 pm 23:53 Cloudy 37 2.8 18 -7.8 46 46 N 18 30 30.31 1026 10 16 0.00 0.00

Powered by AerisWeather